sat.trackr.live / text

‹ back to catalog

STARLINK-36149

NORAD 66969 · 2025-288L

PAYLOAD ACTIVE UNKNOWN

§ Identity

Operator
Country
US
Launch date
2025-12-08
Launch site
AFETR
Launch vehicle
Mass (kg)
RCS (m²)

Purposes: comms

External: N2YO · Heavens-Above · Gunter

§ Orbital elements

Epoch: 2026-05-24T20:47:49.801632Z

Period
94.27 min
Inclination
43.0031°
Eccentricity
0.0002207
Mean motion
15.27596765 rev/d
Perigee alt
481.5 km
Apogee alt
484.5 km
Semi-major
6,861.1 km
B*
8.0963e-4
RAAN
313.5997°
Arg perigee
269.3202°
Mean anomaly
90.7397°
Rev number
2,693

§ Raw data

STARLINK-361491 66969U 25288L   26144.86654863  .00022096  00000+0  80963-3 0  99912 66969  43.0031 313.5997 0002207 269.3202  90.7397 15.27596765 26939

JSON: /api/v1/satellites/66969 · /tle

For live sub-satellite position, see the globe view (requires WebGL).

§ Visibility from observer

Set your observer location to see the next 7 days of passes ≥ 10°. The values pass through the URL so the page stays shareable.

No JS? Fill the form by hand. The geolocation button needs JavaScript.